EN

Hourly Weather Aberystwyth

Today, 28 February, Sunday

Time Temperature Precipitation Wind Pressure Humidity
00:00 +4°C° 0 mm 1 mps 771 mmHg 90%
01:00 +3°C° 0 mm 2 mps 771 mmHg 90%
02:00 +3°C° 0 mm 2 mps 770 mmHg 90%
03:00 +3°C° 0 mm 2 mps 770 mmHg 90%
04:00 +3°C° 0 mm 2 mps 770 mmHg 90%
05:00 +2°C° 0 mm 2 mps 770 mmHg 90%
06:00 +2°C° 0 mm 2 mps 770 mmHg 90%
07:00 +3°C° 0 mm 2 mps 770 mmHg 88%
08:00 +4°C° 0 mm 2 mps 770 mmHg 86%
09:00 +5°C° 0 mm 2 mps 769 mmHg 84%
10:00 +8°C° 0 mm 1 mps 769 mmHg 78%
11:00 +10°C° 0 mm 1 mps 769 mmHg 72%
12:00 +11°C° 0 mm 1 mps 769 mmHg 66%
13:00 +12°C° 0 mm 1 mps 769 mmHg 66%
14:00 +12°C° 0 mm 2 mps 768 mmHg 66%
15:00 +12°C° 0 mm 2 mps 768 mmHg 65%
16:00 +10°C° 0 mm 2 mps 767 mmHg 73%
17:00 +8°C° 0 mm 2 mps 767 mmHg 80%
18:00 +7°C° 0 mm 2 mps 767 mmHg 88%
19:00 +6°C° 0 mm 2 mps 767 mmHg 89%
20:00 +5°C° 0 mm 2 mps 767 mmHg 90%
21:00 +5°C° 0 mm 2 mps 767 mmHg 91%
22:00 +3°C° 0 mm 3 mps 767 mmHg 91%
23:00 +3°C° 0 mm 3 mps 767 mmHg 92%

Tomorrow, 1 March, Monday

Time Temperature Precipitation Wind Pressure Humidity
00:00 +3°C° 0 mm 3 mps 767 mmHg 92%
01:00 +3°C° 0 mm 3 mps 766 mmHg 93%
02:00 +2°C° 0 mm 3 mps 766 mmHg 93%
03:00 +2°C° 0 mm 3 mps 765 mmHg 94%
04:00 +2°C° 0 mm 3 mps 765 mmHg 93%
05:00 +2°C° 0 mm 3 mps 765 mmHg 93%
06:00 +1°C° 0 mm 3 mps 765 mmHg 92%
07:00 +2°C° 0 mm 3 mps 765 mmHg 89%
08:00 +3°C° 0 mm 3 mps 765 mmHg 86%
09:00 +4°C° 0 mm 4 mps 765 mmHg 83%
10:00 +6°C° 0 mm 4 mps 765 mmHg 78%
11:00 +7°C° 0 mm 4 mps 764 mmHg 73%
12:00 +10°C° 0 mm 4 mps 764 mmHg 67%
13:00 +10°C° 0 mm 4 mps 764 mmHg 68%
14:00 +10°C° 0 mm 4 mps 764 mmHg 69%
15:00 +10°C° 0 mm 4 mps 763 mmHg 70%
16:00 +8°C° 0 mm 4 mps 763 mmHg 76%
17:00 +7°C° 0 mm 4 mps 763 mmHg 83%
18:00 +6°C° 0 mm 4 mps 763 mmHg 89%
19:00 +5°C° 0 mm 4 mps 763 mmHg 90%
20:00 +5°C° 0 mm 4 mps 763 mmHg 91%
21:00 +4°C° 0 mm 4 mps 763 mmHg 91%
22:00 +3°C° 0 mm 3 mps 763 mmHg 92%
23:00 +3°C° 0 mm 3 mps 763 mmHg 92%

Day after tomorrow, 2 March, Tuesday

Time Temperature Precipitation Wind Pressure Humidity
00:00 +2°C° 0 mm 3 mps 763 mmHg 92%
01:00 +2°C° 0 mm 3 mps 763 mmHg 93%
02:00 +1°C° 0 mm 3 mps 762 mmHg 93%
03:00 +1°C° 0 mm 3 mps 762 mmHg 93%
04:00 +1°C° 0 mm 3 mps 762 mmHg 93%
05:00 +1°C° 0 mm 3 mps 762 mmHg 94%
06:00 0°C° 0 mm 3 mps 762 mmHg 94%
07:00 +1°C° 0 mm 3 mps 762 mmHg 91%
08:00 +3°C° 0 mm 3 mps 762 mmHg 89%
09:00 +4°C° 0 mm 3 mps 762 mmHg 87%
10:00 +5°C° 0 mm 3 mps 762 mmHg 80%
11:00 +8°C° 0 mm 2 mps 762 mmHg 74%
12:00 +10°C° 0 mm 2 mps 762 mmHg 68%
13:00 +12°C° 0 mm 2 mps 762 mmHg 67%
14:00 +12°C° 0 mm 2 mps 762 mmHg 67%
15:00 +13°C° 0 mm 2 mps 761 mmHg 66%
16:00 +10°C° 0 mm 2 mps 761 mmHg 73%
17:00 +8°C° 0 mm 2 mps 761 mmHg 81%
18:00 +7°C° 0 mm 2 mps 761 mmHg 88%
19:00 +6°C° 0 mm 2 mps 761 mmHg 89%
20:00 +6°C° 0 mm 2 mps 762 mmHg 90%
21:00 +5°C° 0 mm 2 mps 762 mmHg 91%
22:00 +5°C° 0 mm 2 mps 762 mmHg 91%
23:00 +5°C° 0 mm 2 mps 762 mmHg 91%

3 March, Wednesday

Time Temperature Precipitation Wind Pressure Humidity
00:00 +5°C° 0 mm 2 mps 762 mmHg 91%
01:00 +5°C° 0 mm 2 mps 761 mmHg 91%
02:00 +6°C° 0 mm 2 mps 761 mmHg 91%
03:00 +6°C° 0 mm 2 mps 761 mmHg 91%
04:00 +6°C° 0.1 mm 2 mps 761 mmHg 91%
05:00 +6°C° 0.1 mm 2 mps 761 mmHg 92%
06:00 +6°C° 0.1 mm 2 mps 761 mmHg 92%
07:00 +8°C° 0 mm 1 mps 761 mmHg 91%
08:00 +8°C° 0 mm 1 mps 761 mmHg 91%
09:00 +9°C° 0 mm 1 mps 761 mmHg 90%
10:00 +9°C° 0 mm 1 mps 761 mmHg 89%
11:00 +10°C° 0 mm 1 mps 761 mmHg 88%
12:00 +10°C° 0 mm 1 mps 761 mmHg 87%
13:00 +10°C° 0 mm 1 mps 760 mmHg 87%
14:00 +11°C° 0 mm 1 mps 760 mmHg 87%
15:00 +11°C° 0 mm 1 mps 760 mmHg 87%
16:00 +10°C° 0 mm 1 mps 760 mmHg 89%
17:00 +9°C° 0 mm 1 mps 760 mmHg 92%
18:00 +8°C° 0 mm 1 mps 759 mmHg 94%
19:00 +8°C° 0 mm 1 mps 760 mmHg 94%
20:00 +7°C° 0 mm 1 mps 760 mmHg 94%
21:00 +7°C° 0 mm 1 mps 760 mmHg 94%
22:00 +6°C° 0 mm 1 mps 760 mmHg 94%
23:00 +6°C° 0 mm 1 mps 760 mmHg 94%

4 March, Thursday

Time Temperature Precipitation Wind Pressure Humidity
00:00 +6°C° 0 mm 1 mps 760 mmHg 93%
01:00 +6°C° 0 mm 1 mps 759 mmHg 94%
02:00 +6°C° 0 mm 1 mps 759 mmHg 94%
03:00 +6°C° 0 mm 1 mps 759 mmHg 94%
04:00 +6°C° 0 mm 1 mps 759 mmHg 94%
05:00 +7°C° 0 mm 1 mps 759 mmHg 95%
06:00 +7°C° 0 mm 1 mps 759 mmHg 95%
07:00 +7°C° 0 mm 1 mps 759 mmHg 93%
08:00 +8°C° 0 mm 1 mps 759 mmHg 92%
09:00 +8°C° 0 mm 1 mps 759 mmHg 90%
10:00 +9°C° 0 mm 1 mps 759 mmHg 86%
11:00 +10°C° 0 mm 1 mps 759 mmHg 81%
12:00 +11°C° 0 mm 1 mps 759 mmHg 77%
13:00 +11°C° 0 mm 1 mps 759 mmHg 77%
14:00 +11°C° 0 mm 1 mps 759 mmHg 78%
15:00 +10°C° 0 mm 1 mps 759 mmHg 78%
16:00 +8°C° 0 mm 2 mps 759 mmHg 80%
17:00 +8°C° 0 mm 2 mps 759 mmHg 81%
18:00 +7°C° 0 mm 2 mps 759 mmHg 83%
19:00 +5°C° 0 mm 3 mps 759 mmHg 82%
20:00 +5°C° 0 mm 4 mps 760 mmHg 81%
21:00 +4°C° 0 mm 4 mps 760 mmHg 80%
22:00 +3°C° 0 mm 5 mps 761 mmHg 84%
23:00 +2°C° 0 mm 5 mps 761 mmHg 87%

5 March, Friday

Time Temperature Precipitation Wind Pressure Humidity
00:00 +2°C° 0 mm 5 mps 761 mmHg 91%
01:00 +1°C° 0 mm 5 mps 761 mmHg 90%
02:00 +1°C° 0 mm 5 mps 761 mmHg 89%
03:00 0°C° 0 mm 5 mps 761 mmHg 88%
04:00 0°C° 0 mm 5 mps 761 mmHg 87%
05:00 -1°C° 0 mm 5 mps 761 mmHg 87%
06:00 -2°C° 0 mm 4 mps 761 mmHg 86%
07:00 -1°C° 0 mm 4 mps 762 mmHg 80%
08:00 0°C° 0 mm 4 mps 762 mmHg 75%
09:00 +1°C° 0 mm 4 mps 762 mmHg 69%
10:00 +3°C° 0 mm 4 mps 762 mmHg 65%
11:00 +4°C° 0 mm 4 mps 762 mmHg 62%
12:00 +5°C° 0 mm 4 mps 762 mmHg 58%
13:00 +5°C° 0 mm 4 mps 762 mmHg 59%
14:00 +5°C° 0 mm 4 mps 762 mmHg 60%
15:00 +5°C° 0 mm 3 mps 762 mmHg 61%
16:00 +4°C° 0 mm 4 mps 762 mmHg 65%
17:00 +3°C° 0 mm 4 mps 762 mmHg 69%
18:00 +1°C° 0 mm 4 mps 762 mmHg 73%
19:00 0°C° 0 mm 4 mps 762 mmHg 74%
20:00 0°C° 0 mm 4 mps 762 mmHg 75%
21:00 -1°C° 0 mm 5 mps 763 mmHg 75%
22:00 -1°C° 0 mm 5 mps 763 mmHg 77%
23:00 -2°C° 0 mm 4 mps 763 mmHg 79%
Show more